This demonstration page uses our WeatherBlox Daily Observations layout. Learn more.

Left ArrowRight Arrow

Hourly Observations for August 9, 2021

Temp ( °F °C ) Dew Point ( °F °C ) Humidity (%) Winds ( mph kmh ) Pressure ( in mb ) Visibility ( mi km ) Precip ( " mm )
12:59 am 00:59 Clear 70 21.1 67 19.4 90 90 Calm 30.13 1020 8 13 0.00 0.00
1:59 am 01:59 Clear 70 21.1 66 18.9 87 87 Calm 30.13 1020 8 13 0.00 0.00
2:59 am 02:59 Mostly Clear 70 21.1 67 19.4 90 90 Calm 30.12 1020 7 11 0.00 0.00
3:59 am 03:59 Clear 70 21.1 67 19.4 90 90 S 3 6 30.13 1020 8 13 0.00 0.00
4:59 am 04:59 Mostly Clear 70 21.1 67 19.4 90 90 Calm 30.14 1021 8 13 0.00 0.00
5:59 am 05:59 Mostly Clear 70 21.1 67 19.4 90 90 Calm 30.14 1021 8 13 0.00 0.00
6:59 am 06:59 Mostly Sunny 70 21.1 67 19.4 90 90 SSE 5 7 30.16 1021 8 13 0.00 0.00
7:59 am 07:59 Mostly Sunny 74 23.3 70 21.1 88 88 SSW 3 6 30.17 1022 10 16 0.00 0.00
8:59 am 08:59 Sunny 77 25 70 21.1 79 79 SW 7 11 30.18 1022 9 14 0.00 0.00
9:59 am 09:59 Mostly Sunny 81 27.2 69 20.6 67 67 S 7 11 30.19 1022 9 14 0.00 0.00
10:59 am 10:59 Sunny 84 28.9 67 19.4 57 57 S 8 13 30.19 1022 10 16 0.00 0.00
11:59 am 11:59 Sunny 88 31.1 67 19.4 50 50 VRB 6 9 30.19 1022 10 16 0.00 0.00
12:59 pm 12:59 Mostly Sunny 88 31.1 69 20.6 54 54 SSW 7 11 30.18 1022 9 14 0.00 0.00
1:59 pm 13:59 Partly Cloudy 89 31.7 69 20.6 52 52 SSW 6 9 30.16 1021 9 14 0.00 0.00
2:59 pm 14:59 Partly Cloudy 88 31.1 69 20.6 54 54 SSW 8 13 30.14 1021 8 13 0.00 0.00
3:59 pm 15:59 Partly Cloudy 90 32.2 70 21.1 52 52 VRB 7 11 30.13 1020 9 14 0.00 0.00
4:59 pm 16:59 Partly Cloudy 89 31.7 69 20.6 52 52 SSW 7 11 30.12 1020 9 14 0.00 0.00
5:59 pm 17:59 Mostly Sunny 88 31.1 67 19.4 50 50 SSW 8 13 30.12 1020 9 14 0.00 0.00
6:59 pm 18:59 Sunny 85 29.4 65 18.3 51 51 VRB 7 11 30.12 1020 9 14 0.00 0.00
7:59 pm 19:59 Sunny 82 27.8 67 19.4 60 60 SSE 7 11 30.14 1021 9 14 0.00 0.00
8:59 pm 20:59 Clear 80 26.7 66 18.9 62 62 S 9 15 30.16 1021 10 16 0.00 0.00
9:59 pm 21:59 Clear 80 26.7 65 18.3 60 60 S 8 13 30.17 1022 10 16 0.00 0.00
10:59 pm 22:59 Clear 79 26.1 67 19.4 67 67 S 7 11 30.17 1022 10 16 0.00 0.00
11:59 pm 23:59 Clear 78 25.6 69 20.6 74 74 S 6 9 30.18 1022 10 16 0.00 0.00

Powered by AerisWeather